Regional Weather Roundup
Issued by NWS

Home | Current Version | Previous Version | Graphics & Text | Print | Product List | Glossary On
Versions: 1 2 3 4 5 6 7 8 9 10 11 12 13 14 15 16 17 18 19 20 21 22 23 24 25 26 27 28 29 30 31 32 33 34 35 36 37 38 39 40 41 42 43 44 45 46 47 48 49 50
854
ASUS44 KJAN 241910
RWRMS

MISSISSIPPI HOURLY WEATHER ROUNDUP
NATIONAL WEATHER SERVICE JACKSON MS
200 PM CDT THU APR 24 2014

NOTE: "FAIR: INDICATES FEW OR NO CLOUDS BELOW 12,000 FEET WITH NO
SIGNIFICANT WEATHER AND/OR OBSTRUCTIONS TO VISIBILITY.

MSZ001>002-007>008-010>013-018>021-025>028-034>036-242000-
NORTHWEST MISSISSIPPI

CITY           SKY/WX    TMP DP  RH WIND       PRES   REMARKS
CLARKSDALE       N/A     81  59  47 S17G24    29.86F
CLEVELAND      FAIR      81  60  48 S21G26    29.85F
GREENWOOD      CLOUDY    80  57  45 S16       29.88F
GREENVILLE     PTSUNNY   80  61  52 S14G25    29.85F
GRENADA        FAIR      77  54  44 SW7       29.88F
OLIVE BRANCH   PTSUNNY   79  54  41 S17G24    29.87F
OXFORD         FAIR      77  52  41 SW12      29.90F
TUNICA         MOCLDY    81  54  39 S21       29.85F
$$

MSZ003>006-009-014>017-022>024-029>033-037>039-242000-
NORTHEAST MISSISSIPPI

CITY           SKY/WX    TMP DP  RH WIND       PRES   REMARKS
BELMONT        FAIR      79  51  37 S14G22    29.90R
COLUMBUS AFB   MOSUNNY   83  54  36 S8G17     29.90F
CORINTH        FAIR      77  48  36 S8        29.88F
GOLDN TRIANGLE PTSUNNY   81  57  44 S9        29.92F
STARKVILLE     FAIR      81  54  39 S8G16     29.90S
TUPELO           N/A     80  52  37 SW10G20   29.88F
$$

MSZ040-058-242000-
CENTRAL MISSISSIPPI

CITY           SKY/WX    TMP DP  RH WIND       PRES   REMARKS
JACKSON INTL   PTSUNNY   81  57  43 S10       29.91S
JACKSON HAWKNS MOSUNNY   82  55  39 S13       29.91S
MERIDIAN KEY   MOSUNNY   83  56  39 S10G21    29.90F
MERIDIAN NAS   MOSUNNY   83  56  39 S10       29.91F
RAYMOND        FAIR      81  75  83 S13G20    29.90F
VICKSBURG      PTSUNNY   82  61  48 SW9G16    29.91R
$$

MSZ059>079-242000-
SOUTH MISSISSIPPI

CITY           SKY/WX    TMP DP  RH WIND       PRES   REMARKS
BROOKHAVEN     FAIR      81  61  50 S14       29.94S
HATTIESBURG    SUNNY     84  57  39 S13       29.92F
MCCOMB         MOSUNNY   81  60  48 S16       29.93F
NATCHEZ        PTSUNNY   79  64  61 S13       29.92S
PINE BELT      MOSUNNY   82  55  39 S14       29.93F
$$

MSZ080>082-242000-
COASTAL MISSISSIPPI

CITY           SKY/WX    TMP DP  RH WIND       PRES   REMARKS
BAY ST LOUIS   MOSUNNY   79  61  53 S12G17    29.96F
BILOXI         MOSUNNY   76  65  68 S8        29.97F
PASCAGOULA     MOSUNNY   78  65  63 VRB6G16   29.96F
GULFPORT       MOSUNNY   79  64  60 S9        29.96S HAZE
$$



USA.gov is the U.S. government's official web portal to all federal, state and local government web resources and services.